Location: Vancouver
(49.2500°N, 123.1330°W)
Time: 14:23:44
(UTC-07:00)

Tiros 2 - Visible Passes

Search period start: 20 April 2014 00:00
Search period end: 30 April 2014 00:00
Orbit: 289 x 293 km, 48.5° (Epoch: 20 April)

Date Brightness Start Highest point End Pass type
(mag) Time Alt. Az. Time Alt. Az. Time Alt. Az.
20 Apr 5.4 21:31:46 10° W 21:34:18 74° S 21:35:29 27° E visible
21 Apr 5.4 21:36:31 10° W 21:39:02 77° S 21:40:03 31° E visible
22 Apr 5.4 21:40:37 10° W 21:43:07 69° S 21:43:56 36° ESE visible
23 Apr 5.7 21:44:03 10° W 21:46:30 53° SSW 21:47:09 38° SE visible
24 Apr 6.2 21:46:52 10° W 21:49:12 38° SSW 21:49:42 33° SSE visible
25 Apr 6.8 21:49:06 10° W 21:51:13 25° SSW 21:51:38 24° S visible
26 Apr 7.5 21:50:50 10° WSW 21:52:32 17° SSW 21:52:57 16° SSW visible
27 Apr 8.1 21:52:31 10° SW 21:53:08 11° SW 21:53:40 10° SSW visible
